Robstown, TX

2:56 AM CST on February 21, 2017 (GMT -0600)
Robstown

Weather History for KRBO - October, 2012

Change the Weather History Date:

Saturday, October 13, 2012

  Actual Average (KCRP) Record (KCRP)
Temperature  
Mean Temperature 84 °F -  
Max Temperature 91 °F 81 °F 94 °F (2015)
Min Temperature 77 °F 63 °F 46 °F (1977)
Cooling Degree Days 19    
Growing Degree Days 34 (Base 50)    
Moisture  
Dew Point 74 °F    
Average Humidity 73    
Maximum Humidity 88    
Minimum Humidity 56    
Precipitation  
Precipitation 0.00 in - - ()
Sea Level Pressure  
Sea Level Pressure 30.00 in    
Wind  
Wind Speed 13 mph (SSE)    
Max Wind Speed 28 mph    
Max Gust Speed 36 mph    
Visibility 10 miles    
Events      
Averages and records for this station are not official NWS values.
T = Trace of Precipitation, MM = Missing Value Source: NWS Daily Summary

Daily Weather History Graph

Daily Weather History Graph

Search for Another Location

Airport or City:

Trip Planner

Search our weather history database for the weather conditions in past years. The results will help you decide how hot, cold, wet, or windy it might be!

Date:

Astronomy

Oct. 13, 2012 Rise Set
Actual Time 7:30 AM CDT 7:03 PM CDT
Civil Twilight 7:06 AM CDT 7:26 PM CDT
Nautical Twilight 6:39 AM CDT 7:53 PM CDT
Astronomical Twilight 6:12 AM CDT 8:21 PM CDT
Moon 5:29 AM CDT (10/13) 5:42 PM CDT (10/13)
Length of Visible Light 12h 20m
Length of Day
11h 33m
Waning Crescent, 5% of the Moon is Illuminated
Oct 13
Waning Crescent
Oct 15
New
Oct 21
First Quarter
Oct 29
Full
Nov 6
Last Quarter

Hourly Weather History & Observations

Time (CDT) Temp. Heat Index Dew Point Humidity Pressure Visibility Wind Dir Wind Speed Gust Speed Precip Events Conditions
12:15 AM 79.2 °F - 74.3 °F 85% 30.08 in 10.0 mi SE 9.2 mph - N/A   Clear
12:35 AM 79.2 °F - 74.5 °F 86% 30.08 in 10.0 mi SE 8.1 mph - N/A   Clear
12:55 AM 79.0 °F - 74.5 °F 86% 30.08 in 10.0 mi SE 8.1 mph - N/A   Clear
1:15 AM 78.8 °F - 74.3 °F 86% 30.07 in 10.0 mi SE 9.2 mph - N/A   Clear
1:35 AM 78.8 °F - 74.3 °F 86% 30.07 in 10.0 mi SE 9.2 mph - N/A   Clear
2:15 AM 78.1 °F - 73.6 °F 86% 30.07 in 10.0 mi SE 9.2 mph - N/A   Clear
2:35 AM 78.3 °F - 73.8 °F 86% 30.06 in 10.0 mi SE 10.4 mph - N/A   Clear
2:55 AM 78.1 °F - 73.6 °F 86% 30.05 in 10.0 mi SE 10.4 mph - N/A   Clear
3:15 AM 78.1 °F - 73.6 °F 86% 30.05 in 10.0 mi SE 10.4 mph - N/A   Clear
3:55 AM 77.9 °F - 73.4 °F 86% 30.04 in 10.0 mi SE 9.2 mph - N/A   Clear
4:55 AM 77.0 °F - 73.0 °F 88% 30.04 in 10.0 mi SE 5.8 mph - N/A   Mostly Cloudy
5:15 AM 77.0 °F - 73.0 °F 88% 30.04 in 10.0 mi SE 8.1 mph - N/A   Scattered Clouds
5:35 AM 77.4 °F - 72.9 °F 86% 30.03 in 10.0 mi SE 9.2 mph - N/A   Clear
5:55 AM 77.4 °F - 72.9 °F 86% 30.04 in 10.0 mi SSE 9.2 mph - N/A   Clear
6:15 AM 77.5 °F - 73.0 °F 86% 30.04 in 10.0 mi SE 9.2 mph - N/A   Clear
6:35 AM 77.5 °F - 73.2 °F 86% 30.04 in 10.0 mi SSE 8.1 mph - N/A   Clear
7:15 AM 77.4 °F - 73.0 °F 86% 30.04 in 10.0 mi SE 5.8 mph - N/A   Clear
7:55 AM 77.0 °F - 73.0 °F 88% 30.03 in 10.0 mi SE 5.8 mph - N/A   Clear
8:15 AM 78.1 °F - 73.6 °F 86% 30.03 in 10.0 mi SE 6.9 mph - N/A   Clear
8:35 AM 79.7 °F - 74.3 °F 83% 30.04 in 10.0 mi SE 8.1 mph - N/A   Scattered Clouds
8:55 AM 80.8 °F 86.5 °F 75.0 °F 83% 30.04 in 10.0 mi SSE 10.4 mph - N/A   Scattered Clouds
9:15 AM 82.4 °F 89.8 °F 75.7 °F 80% 30.04 in 10.0 mi SSE 13.8 mph - N/A   Mostly Cloudy
9:35 AM 83.3 °F 91.8 °F 76.1 °F 79% 30.04 in 10.0 mi SSE 15.0 mph 18.4 mph N/A   Overcast
10:15 AM 86.0 °F 96.0 °F 75.9 °F 72% 30.04 in 10.0 mi South 17.3 mph 25.3 mph N/A   Mostly Cloudy
10:55 AM 88.2 °F 98.0 °F 74.8 °F 65% 30.04 in 10.0 mi SSE 20.7 mph 26.5 mph N/A   Overcast
11:35 AM 89.6 °F 99.3 °F 74.5 °F 61% 30.02 in 10.0 mi SSE 24.2 mph 28.8 mph N/A   Mostly Cloudy
11:55 AM 90.0 °F 100.2 °F 74.7 °F 61% 30.02 in 10.0 mi SE 24.2 mph 32.2 mph N/A   Mostly Cloudy
12:15 PM 90.9 °F 101.8 °F 75.0 °F 60% 30.02 in 10.0 mi SSE 21.9 mph 28.8 mph N/A   Scattered Clouds
12:35 PM 90.5 °F 100.9 °F 74.7 °F 60% 30.00 in 10.0 mi SSE 23.0 mph 28.8 mph N/A   Mostly Cloudy
12:55 PM 89.8 °F 100.3 °F 75.0 °F 62% 30.00 in 10.0 mi SSE 21.9 mph 33.4 mph N/A   Mostly Cloudy
1:15 PM 90.7 °F 99.6 °F 73.8 °F 57% 29.99 in 10.0 mi SSE 24.2 mph 31.1 mph N/A   Mostly Cloudy
1:35 PM 90.5 °F 100.3 °F 74.5 °F 59% 29.98 in 10.0 mi SSE 25.3 mph 33.4 mph N/A   Mostly Cloudy
2:15 PM 90.0 °F 99.0 °F 74.1 °F 59% 29.96 in 10.0 mi SSE 26.5 mph 32.2 mph N/A   Mostly Cloudy
2:35 PM 91.2 °F 100.8 °F 73.9 °F 57% 29.95 in 10.0 mi SSE 23.0 mph 34.5 mph N/A   Scattered Clouds
2:55 PM 91.4 °F 100.7 °F 73.9 °F 56% 29.94 in 10.0 mi SSE 25.3 mph 33.4 mph N/A   Scattered Clouds
3:15 PM 91.4 °F 100.7 °F 73.9 °F 56% 29.94 in 10.0 mi SSE 24.2 mph 32.2 mph N/A   Scattered Clouds
3:35 PM 91.0 °F 100.4 °F 74.1 °F 57% 29.93 in 10.0 mi SSE 27.6 mph 33.4 mph N/A   Scattered Clouds
3:55 PM 91.2 °F 100.8 °F 74.3 °F 57% 29.92 in 10.0 mi SSE 25.3 mph 31.1 mph N/A   Scattered Clouds
4:15 PM 90.7 °F 99.6 °F 73.8 °F 57% 29.92 in 10.0 mi SSE 27.6 mph 35.7 mph N/A   Scattered Clouds
4:55 PM 89.6 °F 98.2 °F 73.6 °F 59% 29.91 in 10.0 mi SSE 26.5 mph 34.5 mph N/A   Clear
5:15 PM 89.6 °F 98.2 °F 73.6 °F 59% 29.91 in 10.0 mi SSE 25.3 mph 33.4 mph N/A   Clear
5:35 PM 88.3 °F 96.4 °F 73.2 °F 61% 29.90 in 10.0 mi SSE 27.6 mph 33.4 mph N/A   Clear
5:55 PM 87.8 °F 94.3 °F 72.0 °F 59% 29.92 in 10.0 mi SSE 25.3 mph 32.2 mph N/A   Clear
6:15 PM 86.9 °F 93.3 °F 72.0 °F 61% 29.91 in 10.0 mi SE 26.5 mph 33.4 mph N/A   Clear
6:35 PM 85.5 °F 91.5 °F 72.0 °F 64% 29.91 in 10.0 mi SSE 21.9 mph 34.5 mph N/A   Clear
6:55 PM 84.6 °F 90.0 °F 71.8 °F 65% 29.91 in 10.0 mi SSE 24.2 mph 31.1 mph N/A   Clear
8:35 PM 82.6 °F 88.1 °F 72.7 °F 72% 29.95 in 10.0 mi SSE 15.0 mph 25.3 mph N/A   Clear
8:55 PM 82.2 °F 87.3 °F 72.5 °F 72% 29.96 in 10.0 mi SSE 15.0 mph 20.7 mph N/A   Clear
9:15 PM 81.9 °F 86.8 °F 72.5 °F 73% 29.96 in 10.0 mi SSE 16.1 mph - N/A   Clear
9:55 PM 81.5 °F 86.5 °F 73.0 °F 75% 29.97 in 10.0 mi SSE 13.8 mph - N/A   Clear
10:15 PM 81.5 °F 86.5 °F 72.9 °F 75% 29.97 in 10.0 mi SSE 11.5 mph - N/A   Clear
10:35 PM 81.1 °F 85.8 °F 72.5 °F 75% 29.97 in 10.0 mi SSE 12.7 mph - N/A   Clear
10:55 PM 80.8 °F 85.2 °F 72.7 °F 76% 29.97 in 10.0 mi SSE 11.5 mph - N/A   Clear
11:35 PM 80.4 °F 84.7 °F 72.7 °F 77% 29.97 in 10.0 mi SSE 10.4 mph - N/A   Clear